Tracking 30970 objects as of 3-Jul-2025
HD Live streaming from Space Station
objects crossing your sky now

STARLINK-3961

Track STARLINK-3961 now!
10-day predictions
STARLINK-3961 is classified as:


NORAD ID: 52637
Int'l Code: 2022-052AR
Perigee: 546.1 km
Apogee: 547.6 km
Inclination: 53.2 °
Period: 95.4 minutes
Semi major axis: 6917 km
RCS: Unknown
Launch date: May 14, 2022
Source: United States (US)
Launch site: AIR FORCE EASTERN TEST RANGE (AFETR)
Your satellite tracking list
JILIN-01 GAOFEN 3D 5
Track 1 satellite(s)




NASA's NSSDC Master Catalog

Two Line Element Set (TLE):
1 52637U 22052AR  25183.61977903 -.00000331  00000-0 -27101-5 0  9990
2 52637  53.2179 301.7293 0001090  91.3455 268.7662 15.08838396174183
Source of the keplerian elements: AFSPC